User: anonymous   Login
Location: Oronoko Observatory
(41.9167°N, 86.3833°W)
Time: 21:21:32
(UTC-05:00)
Language:

PAYLOAD A - Orbit

View from above orbital plane
View from above orbital plane
View from above satellite
View from above satellite

Ground track
Ground track

The orbit data is extracted from the following two-line orbital elements,

1 27840U 03031A   14353.19641179  .00000145  00000-0  58390-4 0  7247
2 27840 098.2203 014.2699 0097807 345.7698 102.9002 14.38756652602314
Epoch (UTC): 19 December 2014 04:42:49
Eccentricity: 0.0097807
inclination: 98.2203°
perigee height: 693 km
apogee height: 832 km
right ascension of ascending node: 14.2699°
argument of perigee: 345.7698°
revolutions per day: 14.38756652
mean anomaly at epoch: 102.9002°
orbit number at epoch: 60231

The dashed part of the orbit path shows where the satellite is in the earth's shadow,  

DLR